TimeEST,TemperatureF,Dew PointF,Humidity,Sea Level PressureIn,VisibilityMPH,Wind Direction,Wind SpeedMPH,Gust SpeedMPH,PrecipitationIn,Events,Conditions,WindDirDegrees,DateUTC
12:52 AM,19.0,-4.0,36,30.21,10.0,Calm,Calm,-,N/A,,Overcast,0,2014-01-29 05:52:00
1:52 AM,19.0,-5.1,34,30.19,10.0,Calm,Calm,-,N/A,,Overcast,0,2014-01-29 06:52:00
2:52 AM,17.1,1.0,50,30.18,7.0,WNW,3.5,-,0.00,Snow,Light Snow,290,2014-01-29 07:52:00
3:38 AM,16.0,7.0,68,30.17,2.0,NNW,3.5,-,0.00,Snow,Light Snow,330,2014-01-29 08:38:00
3:48 AM,15.8,8.6,73,30.17,1.5,NW,3.5,-,0.00,Snow,Light Snow,320,2014-01-29 08:48:00
3:52 AM,16.0,8.1,71,30.17,1.2,Calm,Calm,-,0.00,Snow,Light Snow,0,2014-01-29 08:52:00
4:33 AM,15.1,10.0,80,30.14,1.5,Calm,Calm,-,0.01,Snow,Light Snow,0,2014-01-29 09:33:00
4:48 AM,15.8,10.4,79,30.13,2.0,NW,3.5,-,0.02,Snow,Light Snow,320,2014-01-29 09:48:00
4:52 AM,15.1,10.0,80,30.13,1.8,Calm,Calm,-,0.02,Snow,Light Snow,0,2014-01-29 09:52:00
5:06 AM,15.1,10.0,80,30.13,2.0,NNW,3.5,-,0.00,Snow,Light Snow,330,2014-01-29 10:06:00
5:25 AM,15.1,10.0,80,30.11,2.5,NNW,3.5,-,0.00,Snow,Light Snow,340,2014-01-29 10:25:00
5:52 AM,15.1,10.0,80,30.12,2.5,NNW,4.6,-,0.00,Snow,Light Snow,340,2014-01-29 10:52:00
6:12 AM,15.1,10.0,80,30.11,1.8,Calm,Calm,-,0.01,Snow,Light Snow,0,2014-01-29 11:12:00
6:52 AM,15.1,10.0,80,30.11,1.2,NNW,3.5,-,0.02,Snow,Light Snow,330,2014-01-29 11:52:00
7:52 AM,15.1,10.9,84,30.11,1.0,NW,3.5,-,0.01,Snow,Light Snow,320,2014-01-29 12:52:00
8:09 AM,15.1,10.9,84,30.10,1.5,NW,6.9,-,0.01,Snow,Light Snow,320,2014-01-29 13:09:00
8:15 AM,15.1,10.0,80,30.10,2.0,NW,4.6,-,0.01,Snow,Light Snow,310,2014-01-29 13:15:00
8:23 AM,15.1,10.0,80,30.11,1.2,NW,6.9,-,0.01,Snow,Light Snow,320,2014-01-29 13:23:00
8:42 AM,16.0,10.0,77,30.11,1.8,NW,5.8,-,0.01,Snow,Light Snow,310,2014-01-29 13:42:00
8:52 AM,16.0,10.9,81,30.11,2.0,West,5.8,-,0.01,Snow,Light Snow,280,2014-01-29 13:52:00
9:07 AM,17.1,10.9,77,30.11,3.0,NW,5.8,-,0.00,Snow,Light Snow,320,2014-01-29 14:07:00
9:52 AM,17.1,10.0,74,30.11,10.0,WNW,4.6,-,0.00,,Scattered Clouds,290,2014-01-29 14:52:00
10:52 AM,19.0,7.0,59,30.09,10.0,WNW,6.9,-,N/A,,Clear,300,2014-01-29 15:52:00
11:52 AM,21.0,6.1,53,30.05,10.0,WNW,4.6,-,N/A,,Clear,300,2014-01-29 16:52:00
12:52 PM,23.0,3.9,44,30.02,10.0,West,6.9,-,N/A,,Clear,280,2014-01-29 17:52:00
1:52 PM,24.1,3.0,40,30.00,10.0,WSW,6.9,-,N/A,,Clear,240,2014-01-29 18:52:00
2:52 PM,26.1,1.9,35,30.00,10.0,West,10.4,-,N/A,,Clear,270,2014-01-29 19:52:00
3:52 PM,25.0,-2.0,31,30.01,10.0,West,9.2,16.1,N/A,,Clear,260,2014-01-29 20:52:00
4:52 PM,24.1,-4.0,29,30.02,10.0,WSW,8.1,-,N/A,,Clear,250,2014-01-29 21:52:00
5:52 PM,21.0,-2.9,35,30.06,10.0,WSW,5.8,-,N/A,,Clear,250,2014-01-29 22:52:00
6:52 PM,18.0,-2.0,41,30.10,10.0,SW,5.8,-,N/A,,Clear,220,2014-01-29 23:52:00
7:52 PM,19.9,1.9,46,30.13,10.0,WSW,4.6,-,N/A,,Clear,240,2014-01-30 00:52:00
8:52 PM,19.0,-2.0,40,30.15,10.0,WSW,4.6,-,N/A,,Clear,240,2014-01-30 01:52:00
9:52 PM,18.0,-4.0,38,30.19,10.0,WSW,4.6,-,N/A,,Clear,240,2014-01-30 02:52:00
10:52 PM,16.0,-4.0,41,30.21,10.0,West,3.5,-,N/A,,Clear,270,2014-01-30 03:52:00
11:52 PM,14.0,-2.9,47,30.23,10.0,Calm,Calm,-,N/A,,Clear,0,2014-01-30 04:52:00